Flag for United Kingdom Weather past 2 weeks in Swanage, England, United Kingdom

Now
54 °F

Passing clouds.


Feels Like: 52 °F
Forecast: 35 / 53 °F
Wind: 6 mph from Southwest

Location: Bournemouth Airport

Current Time: Apr 26, 2015 at 2:42:11 AM

Latest Report: Apr 25, 2015 at 11:50 PM


Visibility: 6 mi

Pressure: 29.71 "Hg

Humidity: 94%

Dew point: 52 °F

Location of SwanageLocation

Historic Weather in Swanage — Graph

°F

Swanage temperature yesterday

Maximum temperature yesterday: 59 °F (at 12:20 PM)
Minimum temperature yesterday: 52 °F (at 1:20 AM)
Average temperature yesterday: 54 °F

Past Weeks' High & Low Weather Summary

 TemperatureHumidityPressure
High72 °F (Apr 15, 1:20 PM)100% (Apr 13, 5:50 AM)30.51 "Hg (Apr 13, 5:50 AM)
Low32 °F (Apr 12, 4:20 AM)28% (Apr 21, 4:20 PM)29.68 "Hg (Apr 25, 5:20 AM)
Average53 °F69%30.17 "Hg
* Reported Apr 10 11:20 PM — Apr 25 11:50 PM, Swanage, Weather by CustomWeather, © 2015

Note: Actual official high and low records may vary slightly from our data, if they occured in-between our weather recording intervals... More about our weather records

Advertising

Swanage weather history for previous 24 hours

 ConditionsComfort  
Time TempWeatherWind HumidityBarometerVisibility
11:50 PM
Sat, Apr 25
54 °FPassing clouds.6 mph94%29.71 "Hg6 mi
11:20 PM54 °FLight rain. Passing clouds.6 mph94%29.71 "Hg4 mi
10:50 PM54 °FPassing clouds.5 mph94%29.71 "HgN/A
10:20 PM54 °FPassing clouds.6 mph94%29.71 "HgN/A
9:50 PM52 °FPassing clouds.3 mph100%29.71 "HgN/A
9:20 PM52 °FPassing clouds.5 mph94%29.71 "HgN/A
8:50 PM54 °FPartly sunny.8 mph88%29.71 "HgN/A
8:20 PM54 °FPartly sunny.9 mph94%29.71 "HgN/A
7:50 PM54 °FPartly sunny.5 mph94%29.68 "HgN/A
7:20 PM52 °FSnow. Partly sunny.3 mph100%29.68 "HgN/A
6:50 PM54 °FDrizzle. Fog.7 mph94%29.68 "Hg1 mi
5:50 PM54 °FDrizzle. Broken clouds.7 mph88%29.68 "Hg2 mi
5:20 PM55 °FPartly sunny.9 mph82%29.68 "HgN/A
4:50 PM55 °FSnow. Partly sunny.8 mph88%29.68 "HgN/A
4:20 PM55 °FSnow. Broken clouds.12 mph82%29.71 "HgN/A
3:50 PM57 °FSnow. Scattered clouds.14 mph77%29.71 "HgN/A
3:20 PM57 °FSnow. Partly sunny.13 mph77%29.71 "HgN/A
2:20 PM59 °FScattered clouds.10 mph68%29.71 "HgN/A
1:50 PM59 °FScattered clouds.14 mph63%29.71 "HgN/A
1:20 PM59 °FPartly sunny.14 mph63%29.71 "HgN/A
12:50 PM57 °FPartly sunny.14 mph67%29.71 "HgN/A
12:20 PM59 °FPartly sunny.14 mph68%29.71 "HgN/A
11:50 AM57 °FPartly sunny.14 mph77%29.71 "HgN/A
11:20 AM57 °FPartly sunny.14 mph77%29.71 "HgN/A
10:50 AM57 °FPartly sunny.12 mph77%29.71 "HgN/A
10:20 AM55 °FBroken clouds.15 mph88%29.71 "HgN/A
9:20 AM55 °FPartly sunny.10 mph88%29.71 "HgN/A
8:50 AM54 °FBroken clouds.9 mph94%29.71 "HgN/A
8:20 AM52 °FFog.10 mph100%29.71 "Hg2 mi
7:50 AM52 °FLow clouds.9 mph94%29.71 "Hg4 mi
7:20 AM52 °FLow clouds.10 mph94%29.71 "Hg4 mi
6:50 AM52 °FLow clouds.8 mph94%29.68 "Hg4 mi
6:20 AM52 °FDrizzle. Low clouds.9 mph94%29.68 "Hg4 mi
5:50 AM52 °FDrizzle. Low clouds.10 mph94%29.68 "Hg4 mi
5:20 AM52 °FLight rain. Low clouds.9 mph94%29.68 "Hg5 mi
2:20 AM52 °FPassing clouds.8 mph94%29.74 "Hg4 mi
Weather by CustomWeather, © 2015

See weather overviewHow to use our weather pages